This is the latest recevied weather packets stored in our database for station/object KO4DYK. If no packets are shown the sender has not sent any weather packets the latest 10 day(s).
| Time | Temp. | Humidity | Pressure | Rain* | Wind** | Luminosity | Snow |
|---|---|---|---|---|---|---|---|
| 1778083033 | 11.11° C | 99% | 1017.8 hPa | 1.27 mm | - | 269 W/m² | - |
| 1778082730 | 11.11° C | 99% | 1017.9 hPa | 3.05 mm | - | 192 W/m² | - |
| 1778081592 | 11.11° C | 99% | 1018.5 hPa | 0 mm | - | 55 W/m² | - |
| 1778081289 | 11.11° C | 99% | 1018.5 hPa | 1.78 mm | - | 65 W/m² | - |
| 1778080986 | 11.11° C | 99% | 1018.1 hPa | 3.05 mm | - | 78 W/m² | - |
| 1778080685 | 11.11° C | 99% | 1017.9 hPa | 1.78 mm | - | 40 W/m² | - |
| 1778080381 | 11.11° C | 99% | 1017.4 hPa | 3.05 mm | - | 32 W/m² | - |
| 1778080077 | 11.11° C | 99% | 1017.4 hPa | 3.05 mm | - | 24 W/m² | - |
| 1778079775 | 11.11° C | 99% | 1018.3 hPa | 4.83 mm | - | 20 W/m² | - |
| 1778079471 | 11.11° C | 99% | 1017.8 hPa | 3.05 mm | - | 19 W/m² | - |
| 1778079168 | 11.11° C | 99% | 1017.7 hPa | 3.05 mm | - | 25 W/m² | - |
| 1778078865 | 11.67° C | 99% | 1017.6 hPa | 4.83 mm | - | 28 W/m² | - |
| 1778078563 | 11.67° C | 99% | 1017.8 hPa | 4.32 mm | - | 26 W/m² | - |
| 1778078260 | 11.11° C | 99% | 1018.3 hPa | 6.1 mm | - | 23 W/m² | - |
| 1778077957 | 11.67° C | 99% | 1018.1 hPa | 6.1 mm | - | 18 W/m² | - |
| 1778077656 | 11.67° C | 99% | 1018.2 hPa | 3.05 mm | - | 24 W/m² | - |
| 1778077353 | 11.67° C | 99% | 1018.2 hPa | 3.05 mm | - | 12 W/m² | - |
| 1778077051 | 11.67° C | 99% | 1018.2 hPa | 1.27 mm | - | 14 W/m² | - |
| 1778076750 | 11.67° C | 99% | 1018 hPa | 0 mm | - | 18 W/m² | - |
| 1778076447 | 11.67° C | 99% | 1018.1 hPa | 0 mm | - | 26 W/m² | - |
| 1778076143 | 11.67° C | 99% | 1017.6 hPa | 0 mm | - | 33 W/m² | - |
| 1778075840 | 11.11° C | 99% | 1017.7 hPa | 0 mm | - | 23 W/m² | - |
| 1778075536 | 11.67° C | 99% | 1017.6 hPa | 0 mm | - | 25 W/m² | - |
| 1778075234 | 11.67° C | 99% | 1017.7 hPa | 0 mm | - | 33 W/m² | - |
| 1778074929 | 11.67° C | 99% | 1017.7 hPa | 0 mm | - | 37 W/m² | - |
* Rain latest hour (hover to see other rain measurements)
** Current wind speed in m/s (hover to see current wind gust speed)